Find Starlink 11103

NORAD ID: 59718 Int'l Des: 2024-088 Owner: SPXS Country: US Constellation: starlink operational
LEOCIRCULAR

当前视图

正在加载3D地球...

About Starlink 11103

Starlink 11103 (NORAD 59718) is a starlink constellation satellite (v2 mini d2c) launched May 10, 2024 by SPXS of US. It operates in LEO, CIRCULAR orbit with a mass of 960.00 kg.

关于 Starlink 11103

正在加载描述...

即将过境

Passes for default location (London). Set your location on the main map for personalized predictions.

高度历史

Loading altitude history...

两行轨道根数

1 59718U 24088L 26170.29729294 -.00000447 00000-0 11650-5 0 9996
2 59718 53.1597 185.1724 0001006 86.0351 274.0782 15.69704311122237
Epoch: Jun 19, 2026 • Age: 21 hours

当前状态

高度 368.2 km
速度 7.69 km/s
星下点 -27.21°S, 175.82°W
发射日期 May 10, 2024
运行时间 2.1 years
类型 internet

技术详情

分类 Payload
质量 960.00 kg
干质量 910.00 kg
总质量 960.00 kg
长度 0.30 m
直径 4.10 m
跨度 29.00 m
形状 Box + pan
制造商 SPXS
平台类型 Starlink V2MD
阶段状态 In Orbit
所有者/国家 SPXS/US

Most Searched